Location: Vanderbilt Beach
(26.2700°N, 81.7900°W)
Time: 18:15:19
(UTC-04:00)

N. Korean satellite - Visible Passes

Search period start: 18 June 2021 00:00
Search period end: 28 June 2021 00:00
Orbit: 450 x 500 km, 97.2° (Epoch: 18 June)

Date Brightness Start Highest point End Pass type
(mag) Time Alt. Az. Time Alt. Az. Time Alt. Az.
19 Jun 9.6 05:47:24 10° ENE 05:49:16 14° E 05:51:08 10° SE visible
22 Jun 9.3 05:57:58 10° NE 06:00:42 20° E 06:03:25 10° SE visible
25 Jun 8.7 06:08:51 10° NE 06:12:04 29° E 06:15:16 10° SSE visible
26 Jun 9.7 05:43:15 10° ENE 05:44:41 12° E 05:46:06 10° ESE visible
